User: anonymous   Login
Location: Buchloe
(48.0161°N, 10.7316°E)
Time: 03:21:26
(UTC+01:00)
Language:

ISS - Orbit

View from above orbital plane
View from above orbital plane
View from above satellite
View from above satellite

Ground track
Ground track

The orbit data is extracted from the following two-line orbital elements,

1 25544U 98067A   19020.12321084  .00016717  00000-0  10270-3 0  9022
2 25544  51.6390  17.6496 0004751 282.6517  77.4104 15.53182579 32247
Epoch (UTC): 20 January 2019 02:57:25
Eccentricity: 0.0004751
inclination: 51.6390°
perigee height: 404 km
apogee height: 410 km
right ascension of ascending node: 17.6496°
argument of perigee: 282.6517°
revolutions per day: 15.53182579
mean anomaly at epoch: 77.4104°
orbit number at epoch: 3224

The dashed part of the orbit path shows where the satellite is in the earth's shadow,  

DLR